RH
2 2 2 2 2 2 3 3 3 2 2 4 4 6 3 4 6 15 41 57 60 59 57 60 56 50 50 52 54 52 63 63 78 96 99 99 100 99
3 4 4 5 5 5 5 5 6 6 4 5 7 10 11 9 7 14 25 66 71 63 51 41 50 57 52 50 50 51 53 51 49 51 68 82 92 96
8 9 10 11 10 9 9 8 8 11 14 3 7 16 25 27 12 11 18 26 50 76 64 51 35 37 53 52 49 49 50 50 50 50 50 54 56 69
26 28 28 29 27 22 15 11 11 13 32 19 5 17 41 44 37 22 13 21 24 42 78 70 56 45 34 36 43 46 46 49 49 49 48 47 49 53
32 34 34 37 38 39 34 22 14 17 33 64 17 11 47 50 46 41 39 26 24 28 48 70 63 49 48 41 32 30 38 47 48 50 49 48 46 45
36 39 40 44 48 53 50 36 22 26 39 60 47 18 49 47 48 42 34 30 33 30 36 46 55 60 56 49 44 36 29 30 43 47 49 50 48 46
35 40 45 47 55 66 63 44 31 30 30 35 38 40 55 58 40 39 39 29 31 41 32 32 34 37 47 52 45 41 39 33 24 29 44 46 50 48
42 40 44 46 51 63 78 64 58 71 52 47 52 59 55 67 47 38 43 40 27 26 43 47 54 58 33 28 32 29 26 36 34 25 20 36 43 49
39 39 42 51 59 68 85 98 80 49 33 24 33 40 54 54 72 58 67 67 40 29 35 28 30 37 39 34 27 21 20 19 21 30 26 19 30 40
54 54 54 53 59 70 97 98 99 56 30 28 30 29 29 30 69 69 56 58 48 33 33 26 24 23 27 35 32 27 22 19 17 18 22 21 16 27
66 65 67 66 68 80 100 95 96 84 42 35 30 28 29 27 68 67 46 59 50 28 42 60 24 22 21 21 33 36 29 19 15 13 18 19 17 15
70 69 68 72 78 97 97 97 95 84 78 61 49 38 32 32 39 74 48 57 61 69 83 92 28 17 15 15 17 24 34 31 21 15 15 16 14 14
76 73 78 88 100 99 98 96 98 95 92 76 68 66 63 56 43 77 76 67 67 48 48 64 30 22 18 14 14 14 21 40 38 32 21 15 13 12
84 85 89 97 100 99 97 96 96 96 93 87 85 80 77 78 70 78 94 94 66 45 46 50 26 24 22 19 17 15 14 25 53 100 85 38 21 14
100 98 99 94 95 96 94 98 96 96 98 99 97 87 76 78 74 81 95 98 91 82 83 68 40 31 27 23 25 20 17 12 28 93 99 81 85 40
94 97 100 100 97 96 94 95 99 96 97 93 90 71 62 68 71 64 62 64 90 92 93 80 46 43 38 31 29 31 23 17 12 23 62 96 100 62
88 85 86 92 98 97 86 95 95 95 88 88 87 79 67 60 59 63 59 60 63 61 66 63 43 38 38 37 34 30 25 22 17 11 22 76 100 91
87 89 87 92 95 100 98 92 95 97 96 93 92 91 79 71 62 61 62 66 62 57 55 56 55 43 29 26 28 26 24 22 19 14 11 35 59 96
91 91 91 89 95 100 98 98 98 98 99 98 94 95 94 85 81 70 66 66 61 57 63 64 61 48 40 29 21 24 27 25 20 15 11 20 51 94
95 95 94 95 95 97 100 100 95 98 98 100 100 100 100 99 97 91 89 90 82 79 75 73 69 59 47 38 32 30 32 25 18 14 13 23 51 98
92 94 97 98 98 100 100 100 94 97 98 99 99 99 99 100 100 100 98 98 100 97 87 79 79 80 58 50 42 36 35 30 24 21 20 50 80 97
93 96 99 99 99 99 100 99 92 94 97 98 97 100 99 100 99 100 99 98 98 98 100 97 98 96 84 59 35 32 29 29 35 28 21 78 100 87
93 97 100 99 98 98 98 99 96 93 96 100 100 100 100 99 100 100 100 100 100 100 100 100 100 100 100 88 64 50 50 46 54 31 35 96 99 92
Wind_Speed
55 56 56 55 54 54 55 56 59 64 63 59 59 57 54 53 56 56 52 47 45 45 43 42 43 42 40 39 39 38 40 39 40 46 41 44 42 43
55 54 54 53 53 52 51 51 52 56 62 58 56 55 56 57 55 58 57 54 49 47 46 44 43 45 45 43 41 40 40 39 38 37 35 35 38 35
50 48 46 45 46 46 47 47 47 46 49 53 50 49 50 51 54 52 57 61 56 51 46 45 44 44 46 45 44 43 41 40 40 39 38 38 38 38
44 44 44 44 45 46 47 47 45 43 42 46 45 44 43 44 48 44 48 54 60 57 51 48 46 44 43 45 44 44 43 43 41 40 40 40 40 41
46 46 46 47 48 47 46 46 45 43 40 40 44 43 42 41 44 43 36 42 49 56 57 50 49 47 45 44 43 43 44 45 45 43 40 40 40 40
48 49 50 50 51 50 48 45 44 43 41 41 41 42 41 39 41 40 37 31 33 43 52 55 52 51 49 46 45 45 44 45 46 45 43 40 39 39
51 52 53 52 50 49 48 47 46 44 42 42 43 41 40 36 36 36 37 33 29 32 38 44 43 47 51 52 48 47 46 45 44 45 45 43 40 39
54 53 52 50 49 46 46 45 45 44 42 42 43 43 38 34 34 34 35 33 29 26 31 35 37 37 40 47 51 49 48 48 46 44 44 45 43 41
50 48 48 47 46 44 42 41 44 44 41 41 43 43 41 34 32 33 33 34 31 25 27 29 31 31 32 35 38 43 46 48 48 47 46 44 46 44
44 43 42 42 43 42 36 39 43 41 38 36 37 38 37 35 34 33 31 32 34 30 30 27 26 24 24 27 31 36 40 43 46 46 47 46 45 46
43 42 41 40 37 37 34 38 41 40 36 34 35 35 34 34 34 33 31 30 31 29 28 27 28 28 24 21 23 27 33 38 43 45 46 46 48 48
40 39 38 37 35 31 33 35 39 38 35 32 33 35 33 33 34 33 31 30 27 25 24 25 24 26 27 22 21 22 25 30 37 41 44 46 49 50
39 38 36 33 32 32 32 33 35 35 34 33 33 33 31 31 31 32 31 29 29 27 26 26 21 21 23 21 18 20 21 22 26 33 40 46 45 49
36 36 34 29 28 29 30 33 34 34 34 34 34 31 30 28 28 29 33 29 28 27 25 24 24 22 22 21 17 16 19 22 22 27 30 36 41 44
33 36 34 32 30 32 29 27 28 32 32 34 32 31 29 27 27 30 31 29 32 31 29 28 26 26 26 23 22 19 20 21 24 32 29 35 38 39
34 37 35 31 34 32 30 29 26 25 28 31 31 29 29 28 27 27 30 32 32 30 30 31 30 30 30 30 29 26 24 25 21 28 32 28 33 37
32 33 33 33 32 31 29 29 29 29 28 27 29 29 29 28 26 26 28 29 33 33 32 33 32 33 33 32 32 31 28 27 27 25 29 33 31 35
29 29 28 27 28 29 31 29 26 26 26 28 30 31 30 29 29 30 30 32 32 32 32 31 31 30 34 35 35 33 31 30 30 30 31 31 33 38
25 26 24 24 23 24 28 28 24 22 24 27 29 29 30 30 30 31 31 32 34 34 32 30 30 30 31 34 34 35 34 33 34 34 31 31 30 32
23 24 24 23 22 22 26 25 26 25 23 24 25 25 27 30 32 32 33 32 32 31 31 30 31 31 31 32 30 31 34 35 37 35 30 29 30 32
23 23 23 22 22 21 20 23 25 23 22 20 18 19 22 26 29 26 25 26 28 29 30 30 30 31 31 31 33 31 32 34 35 33 30 25 29 31
24 24 24 23 22 21 20 19 19 22 24 23 23 22 19 19 20 24 29 30 29 28 28 27 27 27 29 29 29 30 30 29 31 29 28 26 25 29
24 24 24 23 24 22 20 18 16 17 21 22 24 26 23 23 21 21 22 23 23 24 24 25 23 21 24 27 28 28 26 26 24 26 26 27 25 27
Wind_Direction
298 296 293 291 288 286 283 282 283 284 282 282 281 281 272 266 266 270 269 262 259 257 256 253 252 253 254 255 252 247 248 249 248 247 256 254 243 238
296 294 292 291 289 287 285 283 281 281 281 282 282 281 279 274 265 264 263 265 260 255 253 252 250 249 249 249 251 252 249 248 249 248 247 248 258 253
297 295 294 295 294 292 291 290 288 285 284 281 282 284 284 283 276 270 268 266 262 257 254 252 250 247 246 247 247 248 249 249 248 247 246 245 245 249
301 299 298 296 293 292 290 289 288 286 284 285 279 284 286 288 289 284 272 267 266 262 256 252 252 250 247 245 247 247 246 247 248 246 245 244 242 243
299 297 296 294 292 289 287 286 285 283 282 284 281 278 285 288 291 292 290 278 268 263 260 254 250 250 249 246 245 245 245 244 245 245 244 243 243 243
294 294 293 291 290 288 284 281 280 279 280 281 282 281 282 284 289 293 292 281 273 262 258 256 253 251 251 252 248 245 245 245 244 245 246 245 245 244
294 294 293 290 286 281 276 277 278 279 278 277 278 280 282 284 287 287 286 284 270 263 259 260 260 256 253 251 251 249 248 246 244 244 244 244 244 245
296 296 294 292 289 282 275 269 271 274 275 277 278 276 278 282 283 283 281 280 273 262 257 258 258 255 255 256 254 251 250 247 245 244 244 243 242 241
299 299 297 294 290 284 278 272 267 269 272 276 275 275 279 281 280 279 278 276 273 266 262 258 260 259 253 250 249 248 247 247 246 243 242 242 241 241
300 298 295 292 289 284 275 270 269 270 271 272 272 272 274 272 273 276 274 273 271 267 266 261 261 256 250 247 244 241 241 243 246 242 239 239 240 239
300 298 297 296 292 284 275 269 269 270 271 269 269 273 270 266 265 271 269 270 269 268 267 265 261 260 253 249 245 242 241 239 241 243 240 237 237 237
297 297 298 297 293 282 273 273 271 270 272 269 269 271 271 266 259 260 265 267 268 262 257 258 261 259 256 248 245 247 247 244 240 239 239 236 232 234
300 299 299 298 291 286 276 267 269 272 271 272 272 271 271 264 257 254 259 264 266 263 261 262 258 253 255 244 239 248 251 249 242 239 238 237 235 232
304 300 297 296 292 292 284 272 272 273 271 270 270 271 272 266 256 257 253 257 262 263 258 260 262 262 260 255 249 252 251 252 245 232 239 241 236 234
311 307 297 295 293 288 281 282 280 271 268 265 267 270 274 267 257 254 258 252 253 257 260 261 262 264 264 263 262 257 262 253 251 241 231 237 236 233
300 295 290 293 291 289 288 279 278 279 266 264 265 267 271 267 261 258 256 258 257 259 257 260 263 262 263 263 265 261 260 261 255 252 254 244 240 238
305 305 302 289 287 289 287 286 277 274 266 264 264 265 265 264 262 257 257 257 259 262 263 266 264 264 261 261 261 262 259 260 263 259 250 241 237 238
311 309 312 300 278 280 287 289 284 279 271 263 263 263 263 263 261 258 257 259 261 263 264 265 267 262 259 257 258 259 260 262 262 266 250 245 237 234
311 320 317 316 294 274 279 280 283 284 276 268 265 262 263 264 263 263 262 262 264 265 265 263 263 263 261 256 252 253 256 258 258 261 255 247 239 233
325 322 324 322 320 296 275 271 272 279 278 268 268 266 263 261 261 262 262 262 264 264 262 260 261 261 260 259 254 246 246 249 254 259 249 247 235 232
342 340 335 329 325 320 306 280 265 264 270 274 271 271 266 260 259 258 264 265 263 262 262 263 265 264 259 255 249 240 241 249 254 254 244 236 231 228
343 344 343 342 335 327 322 312 284 263 261 266 271 270 275 269 263 256 254 259 263 264 265 265 266 262 256 254 251 248 248 246 251 244 234 223 226 229
351 350 346 343 342 338 329 322 314 287 269 263 264 262 267 271 264 264 262 261 259 261 264 270 269 255 250 248 247 247 248 246 232 227 218 216 219 225